Time,TemperatureF,DewpointF,PressureIn,WindDirection,WindDirectionDegrees,WindSpeedMPH,WindSpeedGustMPH,Humidity,HourlyPrecipIn,Conditions,Clouds,dailyrainin,SoftwareType,DateUTC
2013-06-04 00:00:00,52.0,50.3,29.80,NNW,338,3.0,10.0,94,0.00,,,0.00,WeatherCatV1.15B25,2013-06-04 07:00:00,
2013-06-04 00:05:00,52.1,50.4,29.80,NNW,338,3.0,10.0,94,0.00,,,0.00,WeatherCatV1.15B25,2013-06-04 07:05:00,
2013-06-04 00:10:00,52.1,50.4,29.80,NNW,338,3.0,10.0,94,0.00,,,0.00,WeatherCatV1.15B25,2013-06-04 07:10:00,
2013-06-04 00:15:00,52.1,50.4,29.80,NNW,338,3.0,10.0,94,0.00,,,0.00,WeatherCatV1.15B25,2013-06-04 07:15:00,
2013-06-04 00:20:00,52.1,50.4,29.80,North,0,2.0,10.0,94,0.00,,,0.00,WeatherCatV1.15B25,2013-06-04 07:20:00,
2013-06-04 00:25:00,52.1,50.4,29.80,North,0,2.0,10.0,94,0.00,,,0.00,WeatherCatV1.15B25,2013-06-04 07:25:00,
2013-06-04 00:30:00,52.1,50.4,29.80,North,0,2.0,10.0,94,0.00,,,0.00,WeatherCatV1.15B25,2013-06-04 07:30:00,
2013-06-04 00:35:00,52.1,50.4,29.80,North,0,2.0,9.0,94,0.00,,,0.00,WeatherCatV1.15B25,2013-06-04 07:35:00,
2013-06-04 00:40:00,52.1,50.4,29.80,North,0,2.0,9.0,94,0.00,,,0.00,WeatherCatV1.15B25,2013-06-04 07:40:00,
2013-06-04 00:45:00,52.1,50.4,29.80,North,0,2.0,9.0,94,0.00,,,0.00,WeatherCatV1.15B25,2013-06-04 07:45:00,
2013-06-04 00:50:00,52.2,50.5,29.80,North,0,2.0,7.0,94,0.00,,,0.00,WeatherCatV1.15B25,2013-06-04 07:50:00,
2013-06-04 00:55:00,52.2,50.5,29.80,North,0,2.0,7.0,94,0.00,,,0.00,WeatherCatV1.15B25,2013-06-04 07:55:00,
2013-06-04 01:00:00,52.2,50.5,29.80,North,0,2.0,7.0,94,0.00,,,0.00,WeatherCatV1.15B25,2013-06-04 08:00:00,
2013-06-04 01:05:00,52.2,50.5,29.80,NNW,338,2.0,7.0,94,0.00,,,0.00,WeatherCatV1.15B25,2013-06-04 08:05:00,
2013-06-04 01:10:00,52.2,50.5,29.80,NNW,338,2.0,7.0,94,0.00,,,0.00,WeatherCatV1.15B25,2013-06-04 08:10:00,
2013-06-04 01:15:00,52.2,50.5,29.80,NNW,338,2.0,7.0,94,0.00,,,0.00,WeatherCatV1.15B25,2013-06-04 08:15:00,
2013-06-04 01:20:00,52.1,50.4,29.80,NE,45,3.0,12.0,94,0.00,,,0.00,WeatherCatV1.15B25,2013-06-04 08:20:00,
2013-06-04 01:25:00,52.1,50.4,29.80,NE,45,3.0,12.0,94,0.00,,,0.00,WeatherCatV1.15B25,2013-06-04 08:25:00,
2013-06-04 01:30:00,52.1,50.4,29.80,NE,45,3.0,12.0,94,0.00,,,0.00,WeatherCatV1.15B25,2013-06-04 08:30:00,
2013-06-04 01:35:00,52.1,50.4,29.80,NE,45,3.0,8.0,94,0.00,,,0.00,WeatherCatV1.15B25,2013-06-04 08:35:00,
2013-06-04 01:40:00,52.1,50.4,29.80,NE,45,3.0,8.0,94,0.00,,,0.00,WeatherCatV1.15B25,2013-06-04 08:40:00,
2013-06-04 01:45:00,52.1,50.4,29.80,NE,45,3.0,8.0,94,0.00,,,0.00,WeatherCatV1.15B25,2013-06-04 08:45:00,
2013-06-04 01:50:00,52.0,50.3,29.79,NNE,22,2.0,8.0,94,0.00,,,0.00,WeatherCatV1.15B25,2013-06-04 08:50:00,
2013-06-04 01:55:00,52.0,50.3,29.79,NNE,22,2.0,8.0,94,0.00,,,0.00,WeatherCatV1.15B25,2013-06-04 08:55:00,
2013-06-04 02:00:00,52.0,50.3,29.79,NNE,22,2.0,8.0,94,0.00,,,0.00,WeatherCatV1.15B25,2013-06-04 09:00:00,
2013-06-04 02:05:00,52.0,50.3,29.79,NNE,22,2.0,8.0,94,0.00,,,0.00,WeatherCatV1.15B25,2013-06-04 09:05:00,
2013-06-04 02:10:00,52.1,50.4,29.79,NE,45,2.0,7.0,94,0.00,,,0.00,WeatherCatV1.15B25,2013-06-04 09:10:00,
2013-06-04 02:15:00,52.1,50.4,29.79,NE,45,2.0,7.0,94,0.00,,,0.00,WeatherCatV1.15B25,2013-06-04 09:15:00,
2013-06-04 02:20:00,52.1,50.4,29.79,NE,45,2.0,7.0,94,0.00,,,0.00,WeatherCatV1.15B25,2013-06-04 09:20:00,
2013-06-04 02:25:00,52.1,50.4,29.79,NNW,338,2.0,9.0,94,0.00,,,0.00,WeatherCatV1.15B25,2013-06-04 09:25:00,
2013-06-04 02:30:00,52.1,50.4,29.79,NNW,338,2.0,9.0,94,0.00,,,0.00,WeatherCatV1.15B25,2013-06-04 09:30:00,
2013-06-04 02:35:00,52.1,50.4,29.79,NNW,338,2.0,9.0,94,0.00,,,0.00,WeatherCatV1.15B25,2013-06-04 09:35:00,
2013-06-04 02:40:00,52.1,50.4,29.79,NE,45,2.0,9.0,94,0.00,,,0.00,WeatherCatV1.15B25,2013-06-04 09:40:00,
2013-06-04 02:45:00,52.1,50.4,29.79,NE,45,2.0,9.0,94,0.00,,,0.00,WeatherCatV1.15B25,2013-06-04 09:45:00,
2013-06-04 02:50:00,52.1,50.4,29.79,NE,45,2.0,9.0,94,0.00,,,0.00,WeatherCatV1.15B25,2013-06-04 09:50:00,
2013-06-04 02:55:00,52.1,50.4,29.80,NW,315,2.0,9.0,94,0.00,,,0.00,WeatherCatV1.15B25,2013-06-04 09:55:00,
2013-06-04 03:00:00,52.1,50.4,29.80,NW,315,2.0,9.0,94,0.00,,,0.00,WeatherCatV1.15B25,2013-06-04 10:00:00,
2013-06-04 03:05:00,52.1,50.4,29.80,NW,315,2.0,9.0,94,0.00,,,0.00,WeatherCatV1.15B25,2013-06-04 10:05:00,
2013-06-04 03:10:00,52.1,50.4,29.80,NNW,338,1.0,6.0,94,0.00,,,0.00,WeatherCatV1.15B25,2013-06-04 10:10:00,
2013-06-04 03:15:00,52.1,50.4,29.80,NNW,338,1.0,6.0,94,0.00,,,0.00,WeatherCatV1.15B25,2013-06-04 10:15:00,
2013-06-04 03:20:00,52.1,50.4,29.80,NNW,338,1.0,6.0,94,0.00,,,0.00,WeatherCatV1.15B25,2013-06-04 10:20:00,
2013-06-04 03:25:00,52.2,50.5,29.80,NE,45,1.0,4.0,94,0.00,,,0.00,WeatherCatV1.15B25,2013-06-04 10:25:00,
2013-06-04 03:30:00,52.2,50.5,29.80,NE,45,1.0,4.0,94,0.00,,,0.00,WeatherCatV1.15B25,2013-06-04 10:30:00,
2013-06-04 03:35:00,52.2,50.5,29.80,NE,45,1.0,4.0,94,0.00,,,0.00,WeatherCatV1.15B25,2013-06-04 10:35:00,
2013-06-04 03:40:00,52.2,50.5,29.80,NNE,22,1.0,4.0,94,0.00,,,0.00,WeatherCatV1.15B25,2013-06-04 10:40:00,
2013-06-04 03:45:00,52.2,50.5,29.80,NNE,22,1.0,4.0,94,0.00,,,0.00,WeatherCatV1.15B25,2013-06-04 10:45:00,
2013-06-04 03:50:00,52.2,50.5,29.80,NNE,22,1.0,4.0,94,0.00,,,0.00,WeatherCatV1.15B25,2013-06-04 10:50:00,
2013-06-04 03:55:00,52.2,50.5,29.80,NNE,22,0.0,3.0,94,0.00,,,0.00,WeatherCatV1.15B25,2013-06-04 10:55:00,
2013-06-04 04:00:00,52.2,50.5,29.80,NNE,22,0.0,3.0,94,0.00,,,0.00,WeatherCatV1.15B25,2013-06-04 11:00:00,
2013-06-04 04:05:00,52.2,50.5,29.80,NNE,22,0.0,3.0,94,0.00,,,0.00,WeatherCatV1.15B25,2013-06-04 11:05:00,
2013-06-04 04:10:00,52.2,50.5,29.80,NE,45,1.0,4.0,94,0.00,,,0.00,WeatherCatV1.15B25,2013-06-04 11:10:00,
2013-06-04 04:15:00,52.2,50.5,29.80,NE,45,1.0,4.0,94,0.00,,,0.00,WeatherCatV1.15B25,2013-06-04 11:15:00,
2013-06-04 04:20:00,52.2,50.5,29.80,NE,45,1.0,4.0,94,0.00,,,0.00,WeatherCatV1.15B25,2013-06-04 11:20:00,
2013-06-04 04:25:00,52.2,50.5,29.80,NE,45,1.0,6.0,94,0.00,,,0.00,WeatherCatV1.15B25,2013-06-04 11:25:00,
2013-06-04 04:30:00,52.2,50.5,29.80,NE,45,1.0,6.0,94,0.00,,,0.00,WeatherCatV1.15B25,2013-06-04 11:30:00,
2013-06-04 04:35:00,52.2,50.5,29.80,NE,45,1.0,6.0,94,0.00,,,0.00,WeatherCatV1.15B25,2013-06-04 11:35:00,
2013-06-04 04:40:00,52.1,50.4,29.80,ENE,68,2.0,6.0,94,0.00,,,0.00,WeatherCatV1.15B25,2013-06-04 11:40:00,
2013-06-04 04:45:00,52.1,50.4,29.80,ENE,68,2.0,6.0,94,0.00,,,0.00,WeatherCatV1.15B25,2013-06-04 11:45:00,
2013-06-04 04:50:00,52.1,50.4,29.80,ENE,68,2.0,6.0,94,0.00,,,0.00,WeatherCatV1.15B25,2013-06-04 11:50:00,
2013-06-04 04:55:00,52.3,50.6,29.80,ENE,68,1.0,5.0,94,0.00,,,0.00,WeatherCatV1.15B25,2013-06-04 11:55:00,
2013-06-04 05:09:00,52.3,50.6,29.80,ENE,68,1.0,5.0,94,0.00,,,0.00,WeatherCatV1.15B25,2013-06-04 12:09:00,
2013-06-04 05:24:00,53.1,52.0,29.81,North,9,0.0,1.0,96,0.00,,,0.00,WeatherCatV1.15B25,2013-06-04 12:24:00,
2013-06-04 05:39:00,52.6,50.9,29.81,North,350,0.0,5.0,94,0.00,,,0.00,WeatherCatV1.15B25,2013-06-04 12:39:00,
2013-06-04 05:54:00,52.3,50.6,29.81,NNE,30,1.0,2.0,94,0.00,,,0.00,WeatherCatV1.15B25,2013-06-04 12:54:00,
2013-06-04 06:09:00,52.3,50.6,29.82,North,355,2.0,5.0,94,0.00,,,0.00,WeatherCatV1.15B25,2013-06-04 13:09:00,
2013-06-04 06:24:00,52.2,50.5,29.83,ENE,71,0.0,3.0,94,0.00,,,0.00,WeatherCatV1.15B25,2013-06-04 13:24:00,
2013-06-04 06:39:00,52.2,50.5,29.83,ENE,62,0.0,3.0,94,0.00,,,0.00,WeatherCatV1.15B25,2013-06-04 13:39:00,
2013-06-04 06:54:00,52.3,50.6,29.83,ENE,69,0.0,3.0,94,0.00,,,0.00,WeatherCatV1.15B25,2013-06-04 13:54:00,
2013-06-04 07:09:00,52.4,51.0,29.83,NNE,19,1.0,3.0,95,0.00,,,0.00,WeatherCatV1.15B25,2013-06-04 14:09:00,
2013-06-04 07:24:00,52.6,51.2,29.84,East,88,2.0,6.0,95,0.00,,,0.00,WeatherCatV1.15B25,2013-06-04 14:24:00,
2013-06-04 07:39:00,52.5,51.1,29.84,ENE,69,3.0,4.0,95,0.00,,,0.00,WeatherCatV1.15B25,2013-06-04 14:39:00,
2013-06-04 07:54:00,52.7,51.3,29.84,ENE,67,6.0,13.0,95,0.00,,,0.00,WeatherCatV1.15B25,2013-06-04 14:54:00,
2013-06-04 08:09:00,52.5,51.1,29.85,SW,234,0.0,1.0,95,0.00,,,0.00,WeatherCatV1.15B25,2013-06-04 15:09:00,
2013-06-04 08:24:00,52.8,51.4,29.86,NNE,33,3.0,4.0,95,0.00,,,0.00,WeatherCatV1.15B25,2013-06-04 15:24:00,
2013-06-04 08:39:00,52.9,51.5,29.86,ESE,123,1.0,5.0,95,0.00,,,0.00,WeatherCatV1.15B25,2013-06-04 15:39:00,
2013-06-04 08:54:00,53.0,51.6,29.86,NW,323,9.0,14.0,95,0.00,,,0.00,WeatherCatV1.15B25,2013-06-04 15:54:00,
2013-06-04 09:09:00,53.3,51.9,29.86,NE,41,4.0,11.0,95,0.00,,,0.00,WeatherCatV1.15B25,2013-06-04 16:09:00,
2013-06-04 09:24:00,53.5,51.8,29.86,NNW,336,0.0,9.0,94,0.00,,,0.00,WeatherCatV1.15B25,2013-06-04 16:24:00,
2013-06-04 09:39:00,53.6,51.9,29.87,North,349,2.0,6.0,94,0.00,,,0.00,WeatherCatV1.15B25,2013-06-04 16:39:00,
2013-06-04 09:54:00,53.5,51.8,29.87,ENE,66,3.0,6.0,94,0.00,,,0.00,WeatherCatV1.15B25,2013-06-04 16:54:00,
2013-06-04 10:09:00,53.3,51.9,29.87,NNE,15,1.0,6.0,95,0.00,,,0.00,WeatherCatV1.15B25,2013-06-04 17:09:00,
2013-06-04 10:24:00,53.4,52.0,29.88,NE,54,3.0,11.0,95,0.00,,,0.00,WeatherCatV1.15B25,2013-06-04 17:24:00,
2013-06-04 10:39:00,53.6,52.2,29.89,NE,46,4.0,5.0,95,0.00,,,0.00,WeatherCatV1.15B25,2013-06-04 17:39:00,
2013-06-04 10:54:00,53.9,52.2,29.89,NE,39,3.0,7.0,94,0.00,,,0.00,WeatherCatV1.15B25,2013-06-04 17:54:00,
2013-06-04 11:09:00,54.7,52.7,29.89,ENE,57,3.0,4.0,93,0.00,,,0.00,WeatherCatV1.15B25,2013-06-04 18:09:00,
2013-06-04 11:24:00,55.2,52.6,29.89,ESE,117,2.0,7.0,91,0.00,,,0.00,WeatherCatV1.15B25,2013-06-04 18:24:00,
2013-06-04 11:39:00,55.6,52.7,29.89,NNW,331,6.0,13.0,90,0.00,,,0.00,WeatherCatV1.15B25,2013-06-04 18:39:00,
2013-06-04 11:54:00,56.4,53.5,29.89,East,79,2.0,4.0,90,0.00,,,0.00,WeatherCatV1.15B25,2013-06-04 18:54:00,
2013-06-04 12:09:00,56.7,52.9,29.89,ENE,67,2.0,5.0,87,0.00,,,0.00,WeatherCatV1.15B25,2013-06-04 19:09:00,
2013-06-04 12:24:00,57.3,53.5,29.89,NNW,340,4.0,9.0,87,0.00,,,0.00,WeatherCatV1.15B25,2013-06-04 19:24:00,
2013-06-04 12:39:00,58.1,53.3,29.89,NNW,333,7.0,11.0,84,0.00,,,0.00,WeatherCatV1.15B25,2013-06-04 19:39:00,
2013-06-04 12:54:00,57.8,53.3,29.89,NNE,32,3.0,8.0,85,0.00,,,0.00,WeatherCatV1.15B25,2013-06-04 19:54:00,
2013-06-04 13:09:00,57.2,53.0,29.89,NW,316,8.0,10.0,86,0.00,,,0.00,WeatherCatV1.15B25,2013-06-04 20:09:00,
2013-06-04 13:24:00,57.8,53.6,29.88,East,97,4.0,7.0,86,0.00,,,0.00,WeatherCatV1.15B25,2013-06-04 20:24:00,
2013-06-04 13:39:00,58.2,53.4,29.88,NE,55,6.0,13.0,84,0.00,,,0.00,WeatherCatV1.15B25,2013-06-04 20:39:00,
2013-06-04 13:54:00,59.0,53.5,29.88,ENE,71,2.0,7.0,82,0.00,,,0.00,WeatherCatV1.15B25,2013-06-04 20:54:00,
2013-06-04 14:09:00,59.3,53.8,29.88,North,355,4.0,8.0,82,0.00,,,0.00,WeatherCatV1.15B25,2013-06-04 21:09:00,
2013-06-04 14:24:00,59.0,53.5,29.88,SE,132,5.0,10.0,82,0.00,,,0.00,WeatherCatV1.15B25,2013-06-04 21:24:00,
2013-06-04 14:39:00,58.3,53.2,29.88,SSW,201,1.0,12.0,83,0.00,,,0.00,WeatherCatV1.15B25,2013-06-04 21:39:00,
2013-06-04 14:54:00,58.2,53.4,29.89,SW,219,3.0,7.0,84,0.00,,,0.00,WeatherCatV1.15B25,2013-06-04 21:54:00,
2013-06-04 15:09:00,57.9,53.1,29.89,SSW,193,4.0,14.0,84,0.00,,,0.00,WeatherCatV1.15B25,2013-06-04 22:09:00,
2013-06-04 15:24:00,57.5,53.3,29.88,South,191,4.0,11.0,86,0.00,,,0.00,WeatherCatV1.15B25,2013-06-04 22:24:00,
2013-06-04 15:39:00,57.6,53.1,29.88,WSW,238,6.0,7.0,85,0.00,,,0.00,WeatherCatV1.15B25,2013-06-04 22:39:00,
2013-06-04 15:54:00,57.1,52.9,29.88,SSW,213,5.0,10.0,86,0.00,,,0.00,WeatherCatV1.15B25,2013-06-04 22:54:00,
2013-06-04 16:09:00,56.9,52.8,29.87,WSW,239,5.0,9.0,86,0.00,,,0.00,WeatherCatV1.15B25,2013-06-04 23:09:00,
2013-06-04 16:24:00,56.2,52.4,29.88,NW,304,3.0,9.0,87,0.00,,,0.00,WeatherCatV1.15B25,2013-06-04 23:24:00,
2013-06-04 16:39:00,56.0,52.2,29.87,SSW,205,0.0,7.0,87,0.00,,,0.00,WeatherCatV1.15B25,2013-06-04 23:39:00,
2013-06-04 16:54:00,55.9,52.4,29.87,NW,320,4.0,9.0,88,0.00,,,0.00,WeatherCatV1.15B25,2013-06-04 23:54:00,
2013-06-04 17:09:00,55.5,52.0,29.87,ESE,112,1.0,5.0,88,0.00,,,0.00,WeatherCatV1.15B25,2013-06-05 00:09:00,
2013-06-04 17:24:00,55.3,51.8,29.87,SW,226,4.0,6.0,88,0.00,,,0.00,WeatherCatV1.15B25,2013-06-05 00:24:00,
2013-06-04 17:39:00,55.3,51.8,29.87,West,266,2.0,10.0,88,0.00,,,0.00,WeatherCatV1.15B25,2013-06-05 00:39:00,
2013-06-04 17:54:00,54.6,51.4,29.87,SE,140,5.0,11.0,89,0.00,,,0.00,WeatherCatV1.15B25,2013-06-05 00:54:00,
2013-06-04 18:09:00,54.4,51.2,29.86,SSW,201,4.0,10.0,89,0.00,,,0.00,WeatherCatV1.15B25,2013-06-05 01:09:00,
2013-06-04 18:24:00,54.1,51.2,29.86,SSW,213,5.0,7.0,90,0.00,,,0.00,WeatherCatV1.15B25,2013-06-05 01:24:00,
2013-06-04 18:39:00,53.9,51.0,29.86,SW,228,5.0,8.0,90,0.00,,,0.00,WeatherCatV1.15B25,2013-06-05 01:39:00,
2013-06-04 18:54:00,53.6,50.7,29.86,WSW,257,5.0,11.0,90,0.00,,,0.00,WeatherCatV1.15B25,2013-06-05 01:54:00,
2013-06-04 19:09:00,53.4,50.8,29.86,SSW,210,4.0,10.0,91,0.00,,,0.00,WeatherCatV1.15B25,2013-06-05 02:09:00,
2013-06-04 19:24:00,53.2,50.6,29.86,SW,228,4.0,8.0,91,0.00,,,0.00,WeatherCatV1.15B25,2013-06-05 02:24:00,
2013-06-04 19:39:00,53.1,50.5,29.86,South,190,7.0,12.0,91,0.00,,,0.00,WeatherCatV1.15B25,2013-06-05 02:39:00,
2013-06-04 19:54:00,53.0,50.7,29.86,SSW,198,7.0,10.0,92,0.00,,,0.00,WeatherCatV1.15B25,2013-06-05 02:54:00,
2013-06-04 20:09:00,52.8,50.5,29.86,SW,214,5.0,8.0,92,0.00,,,0.00,WeatherCatV1.15B25,2013-06-05 03:09:00,
2013-06-04 20:24:00,52.7,50.4,29.86,SSW,209,6.0,9.0,92,0.00,,,0.00,WeatherCatV1.15B25,2013-06-05 03:24:00,
2013-06-04 20:39:00,52.6,50.3,29.87,SSW,213,4.0,8.0,92,0.00,,,0.00,WeatherCatV1.15B25,2013-06-05 03:39:00,
2013-06-04 20:54:00,52.5,50.2,29.86,WSW,241,5.0,9.0,92,0.00,,,0.00,WeatherCatV1.15B25,2013-06-05 03:54:00,
2013-06-04 21:09:00,52.4,50.4,29.87,SSW,202,5.0,8.0,93,0.00,,,0.00,WeatherCatV1.15B25,2013-06-05 04:09:00,
2013-06-04 21:24:00,52.4,50.4,29.87,SSW,200,3.0,9.0,93,0.00,,,0.00,WeatherCatV1.15B25,2013-06-05 04:24:00,
2013-06-04 21:39:00,52.4,50.4,29.87,WSW,250,4.0,8.0,93,0.00,,,0.00,WeatherCatV1.15B25,2013-06-05 04:39:00,
2013-06-04 21:54:00,52.4,50.4,29.88,South,173,2.0,8.0,93,0.00,,,0.00,WeatherCatV1.15B25,2013-06-05 04:54:00,
2013-06-04 22:09:00,52.4,50.4,29.88,WSW,257,5.0,9.0,93,0.00,,,0.00,WeatherCatV1.15B25,2013-06-05 05:09:00,
2013-06-04 22:24:00,52.4,50.4,29.89,NE,41,0.0,15.0,93,0.00,,,0.00,WeatherCatV1.15B25,2013-06-05 05:24:00,
2013-06-04 22:39:00,52.3,50.3,29.89,NNW,330,7.0,10.0,93,0.00,,,0.00,WeatherCatV1.15B25,2013-06-05 05:39:00,
2013-06-04 22:54:00,52.2,50.2,29.89,NW,316,7.0,10.0,93,0.00,,,0.00,WeatherCatV1.15B25,2013-06-05 05:54:00,
2013-06-04 23:09:00,52.2,50.2,29.90,NNE,32,2.0,9.0,93,0.00,,,0.00,WeatherCatV1.15B25,2013-06-05 06:09:00,
2013-06-04 23:24:00,52.1,50.1,29.90,NNW,342,4.0,7.0,93,0.00,,,0.00,WeatherCatV1.15B25,2013-06-05 06:24:00,
2013-06-04 23:35:00,52.2,50.2,29.89,North,350,3.0,11.0,93,0.00,,,0.00,WeatherCatV1.15B25,2013-06-05 06:35:00,
2013-06-04 23:39:00,52.2,50.2,29.90,ENE,59,3.0,7.0,93,0.00,,,0.00,WeatherCatV1.15B25,2013-06-05 06:39:00,
2013-06-04 23:40:00,52.2,50.2,29.90,NNE,26,3.0,7.0,93,0.00,,,0.00,WeatherCatV1.15B25,2013-06-05 06:40:00,
2013-06-04 23:45:00,52.2,50.2,29.90,NE,47,3.0,10.0,93,0.00,,,0.00,WeatherCatV1.15B25,2013-06-05 06:45:00,
2013-06-04 23:50:00,52.2,50.2,29.90,NNW,338,3.0,16.0,93,0.00,,,0.00,WeatherCatV1.15B25,2013-06-05 06:50:00,
2013-06-04 23:55:00,52.2,50.2,29.90,NNW,338,3.0,16.0,93,0.00,,,0.00,WeatherCatV1.15B25,2013-06-05 06:55:00,